x

Sentry Shoal (46131) Wave Buoy

4:00am - Wed 24th May 2017 All times are PDT. -7 hours from GMT.

  • Sig Wave height 1.6ft
  • Peak Period 3s
  • Wind
    16mph, 22mph gusts
  • Sea Temp 54°f
  • 空気 Temp 52°f
  • Sea Pressure 1016.2mb
  • Sentry Shoal
  • Sentry Shoal

More Historic Weather Station data

Upgrade to MSW Pro to gain access to the past 30 days of data for over 8000 Wavebouys and Weather Stations around the globe.

Join Pro

Comparision Forecast

View Surf forecast
   
Wed 05/24 4:00am 1.6ft 3s 16 22 mph 1016.2mb 54f 52f
3:00am 1.6ft 3s 16 20 mph 1016.6mb 54f 52f
2:00am 1.6ft 3s 20 25 mph 1016.9mb 54f 52f
1:00am 2ft 3s 20 27 mph 1017.6mb 54f 52f
12:00am 2ft 3s 25 29 mph 1017.7mb 54f 52f
Tue 05/23 11:00pm 2ft 3s 20 27 mph 1018.2mb 55f 52f
10:00pm  -   -  25
mph
1017.6mb - 53f
9:00pm  -   -  22
mph
1017.3mb - 53f
8:00pm  -   -  22
mph
- - 54f
7:00pm 4.5ft 5s 31 36 mph 1015.9mb 58f 55f
5:00pm  -   -  29
mph
1012.9mb 60f 58f
4:00pm 1ft 3s 27 36 mph 1012mb 62f 62f
3:00pm 0.3ft 2s 2 4 mph 1011.8mb 61f 65f
2:00pm 0.3ft 2s 9 9 mph 1012.2mb 60f 61f
1:00pm 0.3ft 2s 7 9 mph 1012.7mb 61f 61f
12:00pm 0.3ft 3s 2 4 mph 1013.8mb 62f 63f
11:00am 0.3ft 2s  -  4 mph 1014.3mb 60f 61f
10:00am 0.3ft 2s 4 4 mph 1015.3mb 59f 59f
9:00am 0.3ft 2s 7 9 mph 1016mb 58f 59f
8:00am 0.7ft 2s 7 9 mph 1016mb 58f 58f
7:00am 1ft 2s 11 13 mph 1016.2mb 58f 58f
6:00am 0.7ft 2s 13 18 mph 1016mb 58f 58f
5:00am 1ft 2s 16 18 mph 1016mb 59f 58f
4:00am 1ft 3s 13 16 mph 1016.1mb 59f 59f
3:00am 1ft 2s 13 18 mph 1016.4mb 59f 60f
2:00am 1.3ft 2s 16 18 mph 1016.8mb 59f 60f
1:00am 1ft 2s 13 16 mph 1016.7mb 59f 61f
12:00am 0.3ft 2s 13 18 mph 1016.8mb 60f 64f
Mon 05/22 11:00pm 0.3ft 7s 11 13 mph 1017mb 61f 64f
10:00pm 0.3ft 7s 7 7 mph 1017mb 62f 64f
9:00pm  -  2s 7 7 mph 1017mb 64f 65f
8:00pm 0.3ft 2s 4 4 mph 1017.3mb 65f 69f
7:00pm 0.3ft 2s 7 7 mph 1018.1mb 64f 67f
6:00pm 0.3ft 2s 2 4 mph 1018.1mb 64f 67f
5:00pm 0.3ft 2s 2 4 mph 1018.6mb 67f 67f
4:00pm 0.3ft 2s  -  mph 1019.6mb 65f 69f
3:00pm 0.3ft 2s 4 7 mph 1020.1mb 65f 65f
2:00pm 0.3ft 2s 4 7 mph 1020.6mb 63f 65f
1:00pm 0.3ft 3s 2 2 mph 1021.4mb 62f 64f
12:00pm 0.3ft 3s 2 4 mph 1022.2mb 62f 63f
11:00am 0.3ft 3s 2 4 mph 1022.5mb 59f 60f
10:00am 0.3ft 2s 2 4 mph 1022.9mb 58f 59f
9:00am 0.7ft 2s 7 9 mph 1023.3mb 58f 58f
8:00am 0.7ft 2s 9 9 mph 1023.1mb 57f 58f
7:00am 0.3ft 2s 9 11 mph 1023.3mb 57f 58f
6:00am 0.3ft 2s 7 9 mph 1022.8mb 57f 58f
5:00am 0.7ft 2s 11 13 mph 1022.5mb 57f 59f
4:00am 0.7ft 2s 11 13 mph 1022.6mb 58f 59f
3:00am 0.3ft 2s 11 11 mph 1022.7mb 59f 60f
2:00am 0.3ft 2s 13 16 mph 1022.7mb 58f 61f
1:00am 0.3ft 2s 11 13 mph 1022.5mb 58f 62f
12:00am 0.3ft 3s 7 9 mph 1022.6mb 58f 61f
Sun 05/21 11:00pm 0.3ft 3s 9 9 mph 1022.6mb 59f 61f
10:00pm 0.3ft 2s 4 4 mph 1022.7mb 60f 63f
9:00pm 0.3ft 2s 4 4 mph 1022.3mb 60f 65f
8:00pm 0.3ft 2s 4 4 mph 1022.4mb 62f 68f
7:00pm 0.3ft 4s 4 4 mph 1022.6mb 63f 68f
6:00pm 0.3ft 2s 4 7 mph 1023.1mb 63f 65f
5:00pm 0.3ft 2s 4 4 mph 1023.6mb 63f 64f
4:00pm 0.3ft 2s 4 4 mph 1023.9mb 62f 64f
3:00pm 0.3ft 2s 2 4 mph 1024.7mb 60f 63f
2:00pm 0.3ft 3s 4 4 mph 1025.2mb 61f 61f
1:00pm 0.3ft 2s 2 4 mph 1025.3mb 60f 61f
12:00pm 0.3ft 5s 4 4 mph 1025.6mb 59f 60f
11:00am 0.3ft 4s 4 7 mph 1025.8mb 59f 59f
10:00am 0.3ft 4s 4 7 mph 1025.7mb 58f 58f
9:00am 0.3ft 2s 4 4 mph 1025.8mb 57f 57f
8:00am 0.3ft 2s 7 9 mph 1025.6mb 57f 57f
7:00am 0.3ft 2s 7 9 mph 1025.2mb 57f 57f
6:00am 0.7ft 2s 11 11 mph 1024.8mb 57f 57f
5:00am 0.7ft 2s 9 11 mph 1024.3mb 57f 58f
4:00am 0.7ft 2s 11 13 mph 1024.1mb 56f 58f
3:00am 0.7ft 2s 13 16 mph 1023.8mb 56f 59f
2:00am 0.7ft 2s 13 16 mph 1023.5mb 57f 59f
1:00am 0.3ft 3s 11 13 mph 1023.1mb 57f 59f
12:00am 0.3ft 3s 11 11 mph 1022.7mb 58f 60f
Sat 05/20 11:00pm 0.3ft 2s 9 9 mph 1022.6mb 58f 61f
10:00pm  -  2s 7 9 mph 1022.3mb 59f 63f
9:00pm  -  2s 7 7 mph 1021.7mb 59f 68f
8:00pm  -  2s 7 7 mph 1021.6mb 60f 66f
7:00pm  -  2s 4 7 mph 1021.6mb 63f 66f
6:00pm 0.3ft 2s 4 4 mph 1021.8mb 62f 64f
5:00pm 0.3ft 2s 4 7 mph 1022mb 62f 63f
4:00pm 0.3ft 2s 4 7 mph 1022.2mb 59f 62f
3:00pm 0.3ft 4s 7 7 mph 1022.5mb 60f 61f
2:00pm 0.3ft 3s 4 7 mph 1022.9mb 61f 60f
1:00pm 0.3ft 3s 4 4 mph 1022.9mb 60f 59f